
Distance (Route):
Temperature : -0.4°C
Humidity : 0%
Pressure : 0hPa| Receiver | Frames | First received | Last received |
|---|---|---|---|
| WB7NNF | 332 | 2026-09-01 05:36:52 | 2026-09-01 07:38:07 |
| Receiver | Date | Latitude | Longitude | Direction | Speed | Altitude | Climb | Temperature | Humidity | Pressure | Voltage | Killtimer | Uptime | BKT | XDATA |
|---|---|---|---|---|---|---|---|---|---|---|---|---|---|---|---|
| WB7NNF | 2026-09-01 07:38:07 | 48.16302 | -117.11082 | 66° | 37km/h | 4038m | -13.2m/s | -0.4°C | 0% | 0hPa | 0V | 00:00:00 | 00:00:00 | 00:00:00 | |
| WB7NNF | 2026-09-01 07:37:46 | 48.16213 | -117.11342 | 68° | 40km/h | 4308m | -12.7m/s | -2.5°C | 0% | 0hPa | 0V | 00:00:00 | 00:00:00 | 00:00:00 | |
| WB7NNF | 2026-09-01 07:37:05 | 48.15970 | -117.11758 | 38° | 33km/h | 4842m | -13.1m/s | -5.9°C | 0% | 0hPa | 0V | 00:00:00 | 00:00:00 | 00:00:00 | |
| WB7NNF | 2026-09-01 07:36:45 | 48.15825 | -117.11918 | 36° | 33km/h | 5119m | -13.4m/s | -7.9°C | 0% | 0hPa | 0V | 00:00:00 | 00:00:00 | 00:00:00 | |
| WB7NNF | 2026-09-01 07:36:23 | 48.15668 | -117.12073 | 31° | 37km/h | 5400m | -13.5m/s | -9.9°C | 0% | 0hPa | 0V | 00:00:00 | 00:00:00 | 00:00:00 | |
| WB7NNF | 2026-09-01 07:36:02 | 48.15477 | -117.12227 | 27° | 42km/h | 5700m | -14.1m/s | -11.7°C | 0% | 0hPa | 0V | 00:00:00 | 00:00:00 | 00:00:00 | |
| WB7NNF | 2026-09-01 07:35:41 | 48.15267 | -117.12350 | 19° | 46km/h | 5976m | -13.6m/s | -13.1°C | 0% | 0hPa | 0V | 00:00:00 | 00:00:00 | 00:00:00 | |
| WB7NNF | 2026-09-01 07:35:21 | 48.15026 | -117.12484 | 21° | 49km/h | 6251m | -13.2m/s | -15.3°C | 0% | 0hPa | 0V | 00:00:00 | 00:00:00 | 00:00:00 | |
| WB7NNF | 2026-09-01 07:35:00 | 48.14808 | -117.12623 | 25° | 44km/h | 6523m | -13.4m/s | -17.6°C | 0% | 0hPa | 0V | 00:00:00 | 00:00:00 | 00:00:00 | |
| WB7NNF | 2026-09-01 07:34:40 | 48.14613 | -117.12781 | 34° | 40km/h | 6804m | -13.6m/s | -19.8°C | 0% | 0hPa | 0V | 00:00:00 | 00:00:00 | 00:00:00 | |
| WB7NNF | 2026-09-01 07:34:19 | 48.14434 | -117.12973 | 39° | 42km/h | 7088m | -14.1m/s | -22.0°C | 0% | 0hPa | 0V | 00:00:00 | 00:00:00 | 00:00:00 | |
| WB7NNF | 2026-09-01 07:33:57 | 48.14233 | -117.13207 | 41° | 49km/h | 7379m | -12.5m/s | -24.1°C | 0% | 0hPa | 0V | 00:00:00 | 00:00:00 | 00:00:00 | |
| WB7NNF | 2026-09-01 07:33:34 | 48.14024 | -117.13470 | 43° | 47km/h | 7644m | -12.3m/s | -26.2°C | 0% | 0hPa | 0V | 00:00:00 | 00:00:00 | 00:00:00 | |
| WB7NNF | 2026-09-01 07:33:14 | 48.13827 | -117.13729 | 42° | 51km/h | 7904m | -12.9m/s | -28.1°C | 0% | 0hPa | 0V | 00:00:00 | 00:00:00 | 00:00:00 | |
| WB7NNF | 2026-09-01 07:32:53 | 48.13628 | -117.13971 | 43° | 53km/h | 8154m | -12.4m/s | -30.1°C | 0% | 0hPa | 0V | 00:00:00 | 00:00:00 | 00:00:00 | |
| WB7NNF | 2026-09-01 07:32:16 | 48.13282 | -117.14490 | 47° | 51km/h | 8609m | -12.7m/s | -33.5°C | 0% | 0hPa | 0V | 00:00:00 | 00:00:00 | 00:00:00 | |
| WB7NNF | 2026-09-01 07:31:54 | 48.13056 | -117.14783 | 38° | 57km/h | 8898m | -12.8m/s | -34.5°C | 0% | 0hPa | 0V | 00:00:00 | 00:00:00 | 00:00:00 | |
| WB7NNF | 2026-09-01 07:31:33 | 48.12819 | -117.15002 | 32° | 55km/h | 9150m | -12.7m/s | -36.3°C | 0% | 0hPa | 0V | 00:00:00 | 00:00:00 | 00:00:00 | |
| WB7NNF | 2026-09-01 07:31:13 | 48.12571 | -117.15232 | 35° | 55km/h | 9415m | -13.4m/s | -38.6°C | 0% | 0hPa | 0V | 00:00:00 | 00:00:00 | 00:00:00 | |
| WB7NNF | 2026-09-01 07:30:52 | 48.12328 | -117.15447 | 31° | 57km/h | 9673m | -13.0m/s | -40.8°C | 0% | 0hPa | 0V | 00:00:00 | 00:00:00 | 00:00:00 | |
| WB7NNF | 2026-09-01 07:30:32 | 48.12034 | -117.15661 | 23° | 68km/h | 9950m | -12.9m/s | -42.6°C | 0% | 0hPa | 0V | 00:00:00 | 00:00:00 | 00:00:00 | |
| WB7NNF | 2026-09-01 07:30:11 | 48.11688 | -117.15822 | 14° | 69km/h | 10224m | -13.3m/s | -44.9°C | 0% | 0hPa | 0V | 00:00:00 | 00:00:00 | 00:00:00 | |
| WB7NNF | 2026-09-01 07:29:50 | 48.11341 | -117.15935 | 12° | 69km/h | 10491m | -13.9m/s | -47.2°C | 0% | 0hPa | 0V | 00:00:00 | 00:00:00 | 00:00:00 | |
| WB7NNF | 2026-09-01 07:29:30 | 48.10984 | -117.16042 | 14° | 68km/h | 10779m | -14.4m/s | -49.6°C | 0% | 0hPa | 0V | 00:00:00 | 00:00:00 | 00:00:00 | |
| WB7NNF | 2026-09-01 07:29:09 | 48.10661 | -117.16145 | 10° | 62km/h | 11058m | -14.0m/s | -51.7°C | 0% | 0hPa | 0V | 00:00:00 | 00:00:00 | 00:00:00 | |
| WB7NNF | 2026-09-01 07:28:49 | 48.10319 | -117.16199 | 7° | 64km/h | 11353m | -14.6m/s | -53.8°C | 0% | 0hPa | 0V | 00:00:00 | 00:00:00 | 00:00:00 | |
| WB7NNF | 2026-09-01 07:28:28 | 48.09991 | -117.16274 | 9° | 62km/h | 11640m | -14.5m/s | -55.8°C | 0% | 0hPa | 0V | 00:00:00 | 00:00:00 | 00:00:00 | |
| WB7NNF | 2026-09-01 07:28:08 | 48.09669 | -117.16367 | 12° | 60km/h | 11949m | -14.6m/s | -57.8°C | 0% | 0hPa | 0V | 00:00:00 | 00:00:00 | 00:00:00 | |
| WB7NNF | 2026-09-01 07:27:47 | 48.09358 | -117.16420 | 360° | 64km/h | 12251m | -15.2m/s | -58.4°C | 0% | 0hPa | 0V | 00:00:00 | 00:00:00 | 00:00:00 | |
| WB7NNF | 2026-09-01 07:27:27 | 48.09011 | -117.16413 | 7° | 68km/h | 12562m | -14.8m/s | -59.5°C | 0% | 0hPa | 0V | 00:00:00 | 00:00:00 | 00:00:00 | |
| WB7NNF | 2026-09-01 07:27:06 | 48.08699 | -117.16549 | 23° | 66km/h | 12862m | -14.8m/s | -59.4°C | 0% | 0hPa | 0V | 00:00:00 | 00:00:00 | 00:00:00 | |
| WB7NNF | 2026-09-01 07:26:46 | 48.08408 | -117.16832 | 42° | 62km/h | 13181m | -15.8m/s | -57.9°C | 0% | 0hPa | 0V | 00:00:00 | 00:00:00 | 00:00:00 | |
| WB7NNF | 2026-09-01 07:26:25 | 48.08180 | -117.17096 | 43° | 53km/h | 13494m | -16.4m/s | -55.9°C | 0% | 0hPa | 0V | 00:00:00 | 00:00:00 | 00:00:00 | |
| WB7NNF | 2026-09-01 07:26:05 | 48.07951 | -117.17308 | 32° | 53km/h | 13835m | -16.4m/s | -55.7°C | 0% | 0hPa | 0V | 00:00:00 | 00:00:00 | 00:00:00 | |
| WB7NNF | 2026-09-01 07:25:44 | 48.07730 | -117.17523 | 36° | 53km/h | 14170m | -17.1m/s | -55.8°C | 0% | 0hPa | 0V | 00:00:00 | 00:00:00 | 00:00:00 | |
| WB7NNF | 2026-09-01 07:25:24 | 48.07475 | -117.17792 | 48° | 58km/h | 14537m | -17.3m/s | -56.1°C | 0% | 0hPa | 0V | 00:00:00 | 00:00:00 | 00:00:00 | |
| WB7NNF | 2026-09-01 07:25:03 | 48.07301 | -117.18125 | 45° | 49km/h | 14897m | -18.5m/s | -57.0°C | 0% | 0hPa | 0V | 00:00:00 | 00:00:00 | 00:00:00 | |
| WB7NNF | 2026-09-01 07:24:43 | 48.07086 | -117.18405 | 35° | 53km/h | 15288m | -18.9m/s | -56.0°C | 0% | 0hPa | 0V | 00:00:00 | 00:00:00 | 00:00:00 | |
| WB7NNF | 2026-09-01 07:24:22 | 48.06868 | -117.18697 | 52° | 62km/h | 15689m | -19.8m/s | -56.0°C | 0% | 0hPa | 0V | 00:00:00 | 00:00:00 | 00:00:00 | |
| WB7NNF | 2026-09-01 07:24:01 | 48.06634 | -117.18973 | 45° | 60km/h | 16079m | -19.8m/s | -55.4°C | 0% | 0hPa | 0V | 00:00:00 | 00:00:00 | 00:00:00 | |
| WB7NNF | 2026-09-01 07:23:41 | 48.06441 | -117.19299 | 56° | 42km/h | 16495m | -20.1m/s | -54.5°C | 0% | 0hPa | 0V | 00:00:00 | 00:00:00 | 00:00:00 | |
| WB7NNF | 2026-09-01 07:23:20 | 48.06275 | -117.19498 | 41° | 47km/h | 16903m | -20.7m/s | -52.8°C | 0% | 0hPa | 0V | 00:00:00 | 00:00:00 | 00:00:00 | |
| WB7NNF | 2026-09-01 07:23:00 | 48.06125 | -117.19735 | 36° | 42km/h | 17345m | -21.0m/s | -53.7°C | 0% | 0hPa | 0V | 00:00:00 | 00:00:00 | 00:00:00 | |
| WB7NNF | 2026-09-01 07:22:39 | 48.05937 | -117.19930 | 36° | 42km/h | 17781m | -22.8m/s | -54.7°C | 0% | 0hPa | 0V | 00:00:00 | 00:00:00 | 00:00:00 | |
| WB7NNF | 2026-09-01 07:22:19 | 48.05770 | -117.20074 | 19° | 35km/h | 18258m | -23.2m/s | -53.7°C | 0% | 0hPa | 0V | 00:00:00 | 00:00:00 | 00:00:00 | |
| WB7NNF | 2026-09-01 07:21:58 | 48.05609 | -117.20273 | 54° | 35km/h | 18735m | -24.2m/s | -53.5°C | 0% | 0hPa | 0V | 00:00:00 | 00:00:00 | 00:00:00 | |
| WB7NNF | 2026-09-01 07:21:38 | 48.05472 | -117.20495 | 61° | 44km/h | 19246m | -24.9m/s | -54.0°C | 0% | 0hPa | 0V | 00:00:00 | 00:00:00 | 00:00:00 | |
| WB7NNF | 2026-09-01 07:21:17 | 48.05449 | -117.20717 | 75° | 16km/h | 19731m | -25.1m/s | -52.6°C | 0% | 0hPa | 0V | 00:00:00 | 00:00:00 | 00:00:00 | |
| WB7NNF | 2026-09-01 07:20:57 | 48.05408 | -117.20909 | 76° | 27km/h | 20256m | -24.7m/s | -53.3°C | 0% | 0hPa | 0V | 00:00:00 | 00:00:00 | 00:00:00 | |
| WB7NNF | 2026-09-01 07:20:36 | 48.05412 | -117.20989 | 264° | 7km/h | 20769m | -25.8m/s | -53.0°C | 0% | 0hPa | 0V | 00:00:00 | 00:00:00 | 00:00:00 | |
| WB7NNF | 2026-09-01 07:20:16 | 48.05380 | -117.20977 | 3° | 13km/h | 21308m | -25.5m/s | -52.8°C | 0% | 0hPa | 0V | 00:00:00 | 00:00:00 | 00:00:00 | |
| WB7NNF | 2026-09-01 07:19:55 | 48.05296 | -117.20914 | 321° | 33km/h | 21836m | -26.0m/s | -52.7°C | 0% | 0hPa | 0V | 00:00:00 | 00:00:00 | 00:00:00 | |
| WB7NNF | 2026-09-01 07:19:35 | 48.05161 | -117.20843 | 15° | 20km/h | 22407m | -27.4m/s | -52.1°C | 0% | 0hPa | 0V | 00:00:00 | 00:00:00 | 00:00:00 | |
| WB7NNF | 2026-09-01 07:19:14 | 48.05101 | -117.20869 | 26° | 20km/h | 23004m | -28.5m/s | -52.9°C | 0% | 0hPa | 0V | 00:00:00 | 00:00:00 | 00:00:00 | |
| WB7NNF | 2026-09-01 07:18:53 | 48.05008 | -117.20942 | 27° | 16km/h | 23593m | -30.5m/s | -52.2°C | 0% | 0hPa | 0V | 00:00:00 | 00:00:00 | 00:00:00 | |
| WB7NNF | 2026-09-01 07:18:33 | 48.04939 | -117.21119 | 76° | 24km/h | 24250m | -33.2m/s | -51.7°C | 0% | 0hPa | 0V | 00:00:00 | 00:00:00 | 00:00:00 | |
| WB7NNF | 2026-09-01 07:18:12 | 48.04964 | -117.21247 | 189° | 20km/h | 24936m | -36.5m/s | -49.5°C | 0% | 0hPa | 0V | 00:00:00 | 00:00:00 | 00:00:00 | |
| WB7NNF | 2026-09-01 07:17:52 | 48.05055 | -117.21161 | 307° | 7km/h | 25693m | -37.7m/s | -49.2°C | 0% | 0hPa | 0V | 00:00:00 | 00:00:00 | 00:00:00 | |
| WB7NNF | 2026-09-01 07:17:30 | 48.05068 | -117.21144 | 307° | 9km/h | 26451m | -37.9m/s | -46.9°C | 0% | 0hPa | 0V | 00:00:00 | 00:00:00 | 00:00:00 | |
| WB7NNF | 2026-09-01 07:17:07 | 48.04964 | -117.21044 | 341° | 24km/h | 27458m | -44.5m/s | -46.4°C | 0% | 0hPa | 0V | 00:00:00 | 00:00:00 | 00:00:00 | |
| WB7NNF | 2026-09-01 07:16:45 | 48.04897 | -117.21107 | 75° | 20km/h | 28441m | -48.0m/s | -45.9°C | 0% | 0hPa | 0V | 00:00:00 | 00:00:00 | 00:00:00 | |
| WB7NNF | 2026-09-01 07:16:04 | 48.04968 | -117.21272 | 63° | 5km/h | 30518m | -56.7m/s | -44.1°C | 0% | 0hPa | 0V | 00:00:00 | 00:00:00 | 00:00:00 | |
| WB7NNF | 2026-09-01 07:15:43 | 48.04949 | -117.21319 | 178° | 18km/h | 31664m | -55.6m/s | -44.1°C | 0% | 0hPa | 0V | 00:00:00 | 00:00:00 | 00:00:00 | |
| WB7NNF | 2026-09-01 07:15:23 | 48.04975 | -117.21374 | 76° | 13km/h | 32849m | -62.1m/s | -43.5°C | 0% | 0hPa | 0V | 00:00:00 | 00:00:00 | 00:00:00 | |
| WB7NNF | 2026-09-01 07:14:42 | 48.05099 | -117.21590 | 138° | 42km/h | 35443m | -65.4m/s | -34.7°C | 0% | 0hPa | 0V | 00:00:00 | 00:00:00 | 00:00:00 | |
| WB7NNF | 2026-09-01 07:14:21 | 48.05219 | -117.21808 | 130° | 29km/h | 36473m | -33.2m/s | -33.7°C | 0% | 0hPa | 0V | 00:00:00 | 00:00:00 | 00:00:00 | |
| WB7NNF | 2026-09-01 07:14:00 | 48.05337 | -117.21993 | 134° | 46km/h | 36389m | 6.5m/s | -34.5°C | 0% | 0hPa | 0V | 00:00:00 | 00:00:00 | 00:00:00 | |
| WB7NNF | 2026-09-01 07:13:40 | 48.05456 | -117.22216 | 111° | 26km/h | 36264m | 5.5m/s | -35.9°C | 0% | 0hPa | 0V | 00:00:00 | 00:00:00 | 00:00:00 | |
| WB7NNF | 2026-09-01 07:13:19 | 48.05542 | -117.22450 | 67° | 24km/h | 36145m | 5.1m/s | -36.5°C | 0% | 0hPa | 0V | 00:00:00 | 00:00:00 | 00:00:00 | |
| WB7NNF | 2026-09-01 07:12:59 | 48.05623 | -117.22753 | 98° | 37km/h | 36020m | 6.1m/s | -36.5°C | 0% | 0hPa | 0V | 00:00:00 | 00:00:00 | 00:00:00 | |
| WB7NNF | 2026-09-01 07:12:38 | 48.05703 | -117.22957 | 112° | 40km/h | 35901m | 6.3m/s | -36.7°C | 0% | 0hPa | 0V | 00:00:00 | 00:00:00 | 00:00:00 | |
| WB7NNF | 2026-09-01 07:12:18 | 48.05805 | -117.23168 | 142° | 46km/h | 35777m | 5.6m/s | -36.3°C | 0% | 0hPa | 0V | 00:00:00 | 00:00:00 | 00:00:00 | |
| WB7NNF | 2026-09-01 07:11:57 | 48.05893 | -117.23367 | 150° | 37km/h | 35658m | 5.3m/s | -36.2°C | 0% | 0hPa | 0V | 00:00:00 | 00:00:00 | 00:00:00 | |
| WB7NNF | 2026-09-01 07:11:37 | 48.05952 | -117.23631 | 81° | 24km/h | 35529m | 5.8m/s | -36.2°C | 0% | 0hPa | 0V | 00:00:00 | 00:00:00 | 00:00:00 | |
| WB7NNF | 2026-09-01 07:11:15 | 48.05984 | -117.23950 | 82° | 40km/h | 35403m | 5.7m/s | -36.9°C | 0% | 0hPa | 0V | 00:00:00 | 00:00:00 | 00:00:00 | |
| WB7NNF | 2026-09-01 07:10:54 | 48.05970 | -117.24183 | 55° | 49km/h | 35268m | 4.3m/s | -36.7°C | 0% | 0hPa | 0V | 00:00:00 | 00:00:00 | 00:00:00 | |
| WB7NNF | 2026-09-01 07:10:33 | 48.05930 | -117.24362 | 110° | 15km/h | 35136m | 7.5m/s | -37.2°C | 0% | 0hPa | 0V | 00:00:00 | 00:00:00 | 00:00:00 | |
| WB7NNF | 2026-09-01 07:10:13 | 48.05897 | -117.24429 | 181° | 15km/h | 35001m | 4.7m/s | -38.0°C | 0% | 0hPa | 0V | 00:00:00 | 00:00:00 | 00:00:00 | |
| WB7NNF | 2026-09-01 07:09:52 | 48.05869 | -117.24425 | 176° | 9km/h | 34872m | 7.0m/s | -38.2°C | 0% | 0hPa | 0V | 00:00:00 | 00:00:00 | 00:00:00 | |
| WB7NNF | 2026-09-01 07:09:32 | 48.05903 | -117.24368 | 227° | 22km/h | 34734m | 4.4m/s | -37.8°C | 0% | 0hPa | 0V | 00:00:00 | 00:00:00 | 00:00:00 | |
| WB7NNF | 2026-09-01 07:09:11 | 48.05928 | -117.24273 | 333° | 16km/h | 34601m | 7.9m/s | -37.5°C | 0% | 0hPa | 0V | 00:00:00 | 00:00:00 | 00:00:00 | |
| WB7NNF | 2026-09-01 07:08:51 | 48.05991 | -117.24168 | 217° | 15km/h | 34472m | 2.8m/s | -36.8°C | 0% | 0hPa | 0V | 00:00:00 | 00:00:00 | 00:00:00 | |
| WB7NNF | 2026-09-01 07:08:30 | 48.06133 | -117.24084 | 186° | 58km/h | 34337m | 3.6m/s | -37.1°C | 0% | 0hPa | 0V | 00:00:00 | 00:00:00 | 00:00:00 | |
| WB7NNF | 2026-09-01 07:08:09 | 48.06295 | -117.24084 | 186° | 44km/h | 34224m | 5.3m/s | -37.9°C | 0% | 0hPa | 0V | 00:00:00 | 00:00:00 | 00:00:00 | |
| WB7NNF | 2026-09-01 07:07:49 | 48.06408 | -117.24109 | 338° | 15km/h | 34109m | 12.3m/s | -39.3°C | 0% | 0hPa | 0V | 00:00:00 | 00:00:00 | 00:00:00 | |
| WB7NNF | 2026-09-01 07:07:27 | 48.06485 | -117.24151 | 135° | 18km/h | 33981m | 4.8m/s | -39.5°C | 0% | 0hPa | 0V | 00:00:00 | 00:00:00 | 00:00:00 | |
| WB7NNF | 2026-09-01 07:07:06 | 48.06630 | -117.24296 | 149° | 40km/h | 33852m | 2.5m/s | -39.8°C | 0% | 0hPa | 0V | 00:00:00 | 00:00:00 | 00:00:00 | |
| WB7NNF | 2026-09-01 07:06:45 | 48.06692 | -117.24456 | 61° | 38km/h | 33725m | 5.3m/s | -39.5°C | 0% | 0hPa | 0V | 00:00:00 | 00:00:00 | 00:00:00 | |
| WB7NNF | 2026-09-01 07:06:25 | 48.06730 | -117.24662 | 80° | 37km/h | 33592m | 5.9m/s | -41.4°C | 0% | 0hPa | 0V | 00:00:00 | 00:00:00 | 00:00:00 | |
| WB7NNF | 2026-09-01 07:06:04 | 48.06708 | -117.24806 | 70° | 55km/h | 33466m | 3.2m/s | -42.5°C | 0% | 0hPa | 0V | 00:00:00 | 00:00:00 | 00:00:00 | |
| WB7NNF | 2026-09-01 07:05:44 | 48.06662 | -117.24904 | 37° | 46km/h | 33333m | 6.0m/s | -43.5°C | 0% | 0hPa | 0V | 00:00:00 | 00:00:00 | 00:00:00 | |
| WB7NNF | 2026-09-01 07:05:22 | 48.06627 | -117.24932 | 280° | 38km/h | 33195m | 2.1m/s | -43.6°C | 0% | 0hPa | 0V | 00:00:00 | 00:00:00 | 00:00:00 | |
| WB7NNF | 2026-09-01 07:04:59 | 48.06628 | -117.25076 | 88° | 18km/h | 33048m | 6.2m/s | -44.4°C | 0% | 0hPa | 0V | 00:00:00 | 00:00:00 | 00:00:00 | |
| WB7NNF | 2026-09-01 07:04:39 | 48.06601 | -117.25142 | 343° | 11km/h | 32905m | 5.3m/s | -44.9°C | 0% | 0hPa | 0V | 00:00:00 | 00:00:00 | 00:00:00 | |
| WB7NNF | 2026-09-01 07:04:18 | 48.06578 | -117.25171 | 34° | 29km/h | 32772m | 12.4m/s | -44.9°C | 0% | 0hPa | 0V | 00:00:00 | 00:00:00 | 00:00:00 | |
| WB7NNF | 2026-09-01 07:03:58 | 48.06587 | -117.25212 | 0° | 0km/h | 32646m | 4.5m/s | -44.6°C | 0% | 0hPa | 0V | 00:00:00 | 00:00:00 | 00:00:00 | |
| WB7NNF | 2026-09-01 07:03:37 | 48.06648 | -117.25214 | 197° | 26km/h | 32505m | 5.2m/s | -44.8°C | 0% | 0hPa | 0V | 00:00:00 | 00:00:00 | 00:00:00 | |
| WB7NNF | 2026-09-01 07:03:15 | 48.06745 | -117.25242 | 196° | 11km/h | 32369m | 7.6m/s | -44.7°C | 0% | 0hPa | 0V | 00:00:00 | 00:00:00 | 00:00:00 | |
| WB7NNF | 2026-09-01 07:02:54 | 48.06843 | -117.25295 | 144° | 49km/h | 32235m | 1.9m/s | -44.8°C | 0% | 0hPa | 0V | 00:00:00 | 00:00:00 | 00:00:00 | |
| WB7NNF | 2026-09-01 07:02:34 | 48.06949 | -117.25348 | 252° | 51km/h | 32090m | 4.4m/s | -44.5°C | 0% | 0hPa | 0V | 00:00:00 | 00:00:00 | 00:00:00 | |
| WB7NNF | 2026-09-01 07:02:13 | 48.07016 | -117.25384 | 110° | 29km/h | 31949m | 6.8m/s | -44.7°C | 0% | 0hPa | 0V | 00:00:00 | 00:00:00 | 00:00:00 | |
| WB7NNF | 2026-09-01 07:01:51 | 48.07067 | -117.25457 | 223° | 22km/h | 31815m | 7.6m/s | -44.9°C | 0% | 0hPa | 0V | 00:00:00 | 00:00:00 | 00:00:00 | |
| WB7NNF | 2026-09-01 07:01:30 | 48.07136 | -117.25510 | 177° | 18km/h | 31673m | 2.8m/s | -45.0°C | 0% | 0hPa | 0V | 00:00:00 | 00:00:00 | 00:00:00 | |
| WB7NNF | 2026-09-01 07:01:09 | 48.07140 | -117.25567 | 78° | 44km/h | 31529m | 9.5m/s | -45.0°C | 0% | 0hPa | 0V | 00:00:00 | 00:00:00 | 00:00:00 | |
| WB7NNF | 2026-09-01 07:00:49 | 48.07130 | -117.25655 | 107° | 33km/h | 31393m | 12.3m/s | -44.9°C | 0% | 0hPa | 0V | 00:00:00 | 00:00:00 | 00:00:00 | |
| WB7NNF | 2026-09-01 07:00:27 | 48.07092 | -117.25709 | 19° | 18km/h | 31242m | 5.6m/s | -44.9°C | 0% | 0hPa | 0V | 00:00:00 | 00:00:00 | 00:00:00 | |
| WB7NNF | 2026-09-01 07:00:06 | 48.07020 | -117.25692 | 19° | 35km/h | 31121m | -1.3m/s | -45.0°C | 0% | 0hPa | 0V | 00:00:00 | 00:00:00 | 00:00:00 | |
| WB7NNF | 2026-09-01 06:59:44 | 48.06891 | -117.25564 | 328° | 37km/h | 30972m | 6.9m/s | -45.3°C | 0% | 0hPa | 0V | 00:00:00 | 00:00:00 | 00:00:00 | |
| WB7NNF | 2026-09-01 06:59:23 | 48.06817 | -117.25442 | 359° | 49km/h | 30838m | -0.8m/s | -45.0°C | 0% | 0hPa | 0V | 00:00:00 | 00:00:00 | 00:00:00 | |
| WB7NNF | 2026-09-01 06:59:01 | 48.06837 | -117.25377 | 40° | 49km/h | 30700m | 5.0m/s | -44.9°C | 0% | 0hPa | 0V | 00:00:00 | 00:00:00 | 00:00:00 | |
| WB7NNF | 2026-09-01 06:58:40 | 48.06902 | -117.25377 | 230° | 40km/h | 30566m | 6.9m/s | -44.9°C | 0% | 0hPa | 0V | 00:00:00 | 00:00:00 | 00:00:00 | |
| WB7NNF | 2026-09-01 06:58:20 | 48.06969 | -117.25378 | 46° | 15km/h | 30432m | 5.0m/s | -45.1°C | 0% | 0hPa | 0V | 00:00:00 | 00:00:00 | 00:00:00 | |
| WB7NNF | 2026-09-01 06:57:59 | 48.06990 | -117.25340 | 227° | 22km/h | 30297m | 6.7m/s | -44.9°C | 0% | 0hPa | 0V | 00:00:00 | 00:00:00 | 00:00:00 | |
| WB7NNF | 2026-09-01 06:57:37 | 48.07025 | -117.25350 | 224° | 5km/h | 30165m | 0.6m/s | -45.4°C | 0% | 0hPa | 0V | 00:00:00 | 00:00:00 | 00:00:00 | |
| WB7NNF | 2026-09-01 06:57:15 | 48.07121 | -117.25322 | 108° | 27km/h | 30013m | 0.6m/s | -45.3°C | 0% | 0hPa | 0V | 00:00:00 | 00:00:00 | 00:00:00 | |
| WB7NNF | 2026-09-01 06:56:54 | 48.07204 | -117.25439 | 86° | 49km/h | 29868m | -1.5m/s | -45.0°C | 0% | 0hPa | 0V | 00:00:00 | 00:00:00 | 00:00:00 | |
| WB7NNF | 2026-09-01 06:56:35 | 48.07247 | -117.25645 | 77° | 51km/h | 29726m | 12.9m/s | -45.3°C | 0% | 0hPa | 0V | 00:00:00 | 00:00:00 | 00:00:00 | |
| WB7NNF | 2026-09-01 06:56:13 | 48.07260 | -117.25877 | 124° | 24km/h | 29584m | 7.3m/s | -45.6°C | 0% | 0hPa | 0V | 00:00:00 | 00:00:00 | 00:00:00 | |
| WB7NNF | 2026-09-01 06:55:53 | 48.07314 | -117.26064 | 78° | 44km/h | 29449m | 10.2m/s | -44.8°C | 0% | 0hPa | 0V | 00:00:00 | 00:00:00 | 00:00:00 | |
| WB7NNF | 2026-09-01 06:55:32 | 48.07353 | -117.26245 | 132° | 33km/h | 29328m | 4.0m/s | -43.9°C | 0% | 0hPa | 0V | 00:00:00 | 00:00:00 | 00:00:00 | |
| WB7NNF | 2026-09-01 06:55:11 | 48.07396 | -117.26419 | 94° | 24km/h | 29196m | 0.8m/s | -43.6°C | 0% | 0hPa | 0V | 00:00:00 | 00:00:00 | 00:00:00 | |
| WB7NNF | 2026-09-01 06:54:51 | 48.07511 | -117.26530 | 165° | 33km/h | 29067m | 5.9m/s | -44.4°C | 0% | 0hPa | 0V | 00:00:00 | 00:00:00 | 00:00:00 | |
| WB7NNF | 2026-09-01 06:54:30 | 48.07598 | -117.26676 | 118° | 47km/h | 28940m | 8.6m/s | -44.3°C | 0% | 0hPa | 0V | 00:00:00 | 00:00:00 | 00:00:00 | |
| WB7NNF | 2026-09-01 06:54:08 | 48.07678 | -117.26884 | 87° | 58km/h | 28808m | 10.1m/s | -43.9°C | 0% | 0hPa | 0V | 00:00:00 | 00:00:00 | 00:00:00 | |
| WB7NNF | 2026-09-01 06:53:47 | 48.07701 | -117.27129 | 94° | 69km/h | 28677m | 12.7m/s | -43.9°C | 0% | 0hPa | 0V | 00:00:00 | 00:00:00 | 00:00:00 | |
| WB7NNF | 2026-09-01 06:53:25 | 48.07671 | -117.27435 | 100° | 60km/h | 28541m | 3.6m/s | -44.7°C | 0% | 0hPa | 0V | 00:00:00 | 00:00:00 | 00:00:00 | |
| WB7NNF | 2026-09-01 06:53:04 | 48.07614 | -117.27654 | 246° | 11km/h | 28409m | 10.6m/s | -45.6°C | 0% | 0hPa | 0V | 00:00:00 | 00:00:00 | 00:00:00 | |
| WB7NNF | 2026-09-01 06:52:42 | 48.07571 | -117.27773 | 52° | 38km/h | 28276m | -2.9m/s | -45.8°C | 0% | 0hPa | 0V | 00:00:00 | 00:00:00 | 00:00:00 | |
| WB7NNF | 2026-09-01 06:52:21 | 48.07538 | -117.27853 | 67° | 31km/h | 28144m | 0.9m/s | -46.5°C | 0% | 0hPa | 0V | 00:00:00 | 00:00:00 | 00:00:00 | |
| WB7NNF | 2026-09-01 06:52:01 | 48.07456 | -117.27949 | 33° | 40km/h | 28023m | 9.5m/s | -47.0°C | 0% | 0hPa | 0V | 00:00:00 | 00:00:00 | 00:00:00 | |
| WB7NNF | 2026-09-01 06:51:39 | 48.07323 | -117.28008 | 37° | 16km/h | 27893m | 8.2m/s | -47.7°C | 0% | 0hPa | 0V | 00:00:00 | 00:00:00 | 00:00:00 | |
| WB7NNF | 2026-09-01 06:51:18 | 48.07201 | -117.27922 | 317° | 11km/h | 27758m | -0.0m/s | -47.8°C | 0% | 0hPa | 0V | 00:00:00 | 00:00:00 | 00:00:00 | |
| WB7NNF | 2026-09-01 06:50:57 | 48.07092 | -117.27803 | 32° | 5km/h | 27634m | 1.6m/s | -47.3°C | 0% | 0hPa | 0V | 00:00:00 | 00:00:00 | 00:00:00 | |
| WB7NNF | 2026-09-01 06:50:37 | 48.06993 | -117.27705 | 346° | 53km/h | 27505m | 10.3m/s | -47.7°C | 0% | 0hPa | 0V | 00:00:00 | 00:00:00 | 00:00:00 | |
| WB7NNF | 2026-09-01 06:50:16 | 48.06904 | -117.27582 | 295° | 64km/h | 27378m | 6.4m/s | -48.5°C | 0% | 0hPa | 0V | 00:00:00 | 00:00:00 | 00:00:00 | |
| WB7NNF | 2026-09-01 06:49:56 | 48.06801 | -117.27452 | 333° | 13km/h | 27254m | 6.3m/s | -49.0°C | 0% | 0hPa | 0V | 00:00:00 | 00:00:00 | 00:00:00 | |
| WB7NNF | 2026-09-01 06:49:35 | 48.06747 | -117.27329 | 256° | 29km/h | 27129m | -0.4m/s | -49.1°C | 0% | 0hPa | 0V | 00:00:00 | 00:00:00 | 00:00:00 | |
| WB7NNF | 2026-09-01 06:49:15 | 48.06709 | -117.27263 | 1° | 55km/h | 27002m | 3.6m/s | -48.6°C | 0% | 0hPa | 0V | 00:00:00 | 00:00:00 | 00:00:00 | |
| WB7NNF | 2026-09-01 06:48:54 | 48.06614 | -117.27199 | 332° | 35km/h | 26879m | 7.8m/s | -48.1°C | 0% | 0hPa | 0V | 00:00:00 | 00:00:00 | 00:00:00 | |
| WB7NNF | 2026-09-01 06:48:32 | 48.06571 | -117.27110 | 264° | 18km/h | 26750m | 8.3m/s | -48.6°C | 0% | 0hPa | 0V | 00:00:00 | 00:00:00 | 00:00:00 | |
| WB7NNF | 2026-09-01 06:48:11 | 48.06553 | -117.27016 | 331° | 9km/h | 26626m | 1.5m/s | -48.6°C | 0% | 0hPa | 0V | 00:00:00 | 00:00:00 | 00:00:00 | |
| WB7NNF | 2026-09-01 06:47:49 | 48.06581 | -117.26929 | 273° | 15km/h | 26500m | 10.6m/s | -48.8°C | 0% | 0hPa | 0V | 00:00:00 | 00:00:00 | 00:00:00 | |
| WB7NNF | 2026-09-01 06:47:29 | 48.06645 | -117.26884 | 210° | 60km/h | 26377m | 2.8m/s | -49.1°C | 0% | 0hPa | 0V | 00:00:00 | 00:00:00 | 00:00:00 | |
| WB7NNF | 2026-09-01 06:47:08 | 48.06690 | -117.26945 | 80° | 37km/h | 26254m | 6.9m/s | -49.1°C | 0% | 0hPa | 0V | 00:00:00 | 00:00:00 | 00:00:00 | |
| WB7NNF | 2026-09-01 06:46:46 | 48.06671 | -117.27038 | 33° | 18km/h | 26130m | 12.1m/s | -50.1°C | 0% | 0hPa | 0V | 00:00:00 | 00:00:00 | 00:00:00 | |
| WB7NNF | 2026-09-01 06:46:26 | 48.06614 | -117.27021 | 273° | 33km/h | 26000m | -0.2m/s | -50.1°C | 0% | 0hPa | 0V | 00:00:00 | 00:00:00 | 00:00:00 | |
| WB7NNF | 2026-09-01 06:45:43 | 48.06561 | -117.26827 | 296° | 18km/h | 25732m | 2.9m/s | -49.8°C | 0% | 0hPa | 0V | 00:00:00 | 00:00:00 | 00:00:00 | |
| WB7NNF | 2026-09-01 06:45:21 | 48.06590 | -117.26697 | 287° | 31km/h | 25609m | 8.8m/s | -49.3°C | 0% | 0hPa | 0V | 00:00:00 | 00:00:00 | 00:00:00 | |
| WB7NNF | 2026-09-01 06:45:01 | 48.06684 | -117.26571 | 243° | 68km/h | 25481m | 8.9m/s | -49.4°C | 0% | 0hPa | 0V | 00:00:00 | 00:00:00 | 00:00:00 | |
| WB7NNF | 2026-09-01 06:44:40 | 48.06818 | -117.26462 | 228° | 47km/h | 25359m | 2.2m/s | -49.6°C | 0% | 0hPa | 0V | 00:00:00 | 00:00:00 | 00:00:00 | |
| WB7NNF | 2026-09-01 06:44:19 | 48.06969 | -117.26415 | 190° | 64km/h | 25238m | 10.2m/s | -49.6°C | 0% | 0hPa | 0V | 00:00:00 | 00:00:00 | 00:00:00 | |
| WB7NNF | 2026-09-01 06:42:35 | 48.07126 | -117.26966 | 38° | 33km/h | 24642m | 10.1m/s | -52.1°C | 0% | 0hPa | 0V | 00:00:00 | 00:00:00 | 00:00:00 | |
| WB7NNF | 2026-09-01 06:42:15 | 48.07076 | -117.27084 | 158° | 38km/h | 24515m | 5.4m/s | -52.2°C | 0% | 0hPa | 0V | 00:00:00 | 00:00:00 | 00:00:00 | |
| WB7NNF | 2026-09-01 06:41:54 | 48.07029 | -117.27200 | 20° | 35km/h | 24394m | 9.9m/s | -52.1°C | 0% | 0hPa | 0V | 00:00:00 | 00:00:00 | 00:00:00 | |
| WB7NNF | 2026-09-01 06:41:34 | 48.06966 | -117.27260 | 111° | 15km/h | 24269m | 5.4m/s | -52.9°C | 0% | 0hPa | 0V | 00:00:00 | 00:00:00 | 00:00:00 | |
| WB7NNF | 2026-09-01 06:41:13 | 48.06934 | -117.27399 | 76° | 64km/h | 24140m | 6.8m/s | -52.9°C | 0% | 0hPa | 0V | 00:00:00 | 00:00:00 | 00:00:00 | |
| WB7NNF | 2026-09-01 06:40:52 | 48.06868 | -117.27520 | 35° | 64km/h | 24017m | 6.8m/s | -53.1°C | 0% | 0hPa | 0V | 00:00:00 | 00:00:00 | 00:00:00 | |
| WB7NNF | 2026-09-01 06:40:32 | 48.06731 | -117.27618 | 358° | 42km/h | 23893m | 0.7m/s | -53.5°C | 0% | 0hPa | 0V | 00:00:00 | 00:00:00 | 00:00:00 | |
| WB7NNF | 2026-09-01 06:40:10 | 48.06645 | -117.27622 | 56° | 33km/h | 23759m | 8.5m/s | -52.6°C | 0% | 0hPa | 0V | 00:00:00 | 00:00:00 | 00:00:00 | |
| WB7NNF | 2026-09-01 06:39:49 | 48.06594 | -117.27595 | 336° | 29km/h | 23640m | 4.8m/s | -52.4°C | 0% | 0hPa | 0V | 00:00:00 | 00:00:00 | 00:00:00 | |
| WB7NNF | 2026-09-01 06:39:27 | 48.06562 | -117.27569 | 99° | 29km/h | 23513m | 1.2m/s | -52.5°C | 0% | 0hPa | 0V | 00:00:00 | 00:00:00 | 00:00:00 | |
| WB7NNF | 2026-09-01 06:39:06 | 48.06467 | -117.27580 | 272° | 44km/h | 23396m | 4.8m/s | -52.7°C | 0% | 0hPa | 0V | 00:00:00 | 00:00:00 | 00:00:00 | |
| WB7NNF | 2026-09-01 06:38:46 | 48.06426 | -117.27624 | 54° | 42km/h | 23278m | 8.2m/s | -53.0°C | 0% | 0hPa | 0V | 00:00:00 | 00:00:00 | 00:00:00 | |
| WB7NNF | 2026-09-01 06:38:25 | 48.06334 | -117.27680 | 340° | 46km/h | 23166m | -0.2m/s | -53.2°C | 0% | 0hPa | 0V | 00:00:00 | 00:00:00 | 00:00:00 | |
| WB7NNF | 2026-09-01 06:38:03 | 48.06250 | -117.27748 | 62° | 46km/h | 23045m | -0.2m/s | -53.4°C | 0% | 0hPa | 0V | 00:00:00 | 00:00:00 | 00:00:00 | |
| WB7NNF | 2026-09-01 06:37:42 | 48.06178 | -117.27756 | 317° | 33km/h | 22937m | 8.6m/s | -53.0°C | 0% | 0hPa | 0V | 00:00:00 | 00:00:00 | 00:00:00 | |
| WB7NNF | 2026-09-01 06:37:22 | 48.06183 | -117.27724 | 106° | 24km/h | 22819m | 3.8m/s | -53.1°C | 0% | 0hPa | 0V | 00:00:00 | 00:00:00 | 00:00:00 | |
| WB7NNF | 2026-09-01 06:37:01 | 48.06149 | -117.27769 | 343° | 49km/h | 22695m | 2.6m/s | -52.5°C | 0% | 0hPa | 0V | 00:00:00 | 00:00:00 | 00:00:00 | |
| WB7NNF | 2026-09-01 06:36:40 | 48.06113 | -117.27839 | 96° | 16km/h | 22580m | 12.0m/s | -52.4°C | 0% | 0hPa | 0V | 00:00:00 | 00:00:00 | 00:00:00 | |
| WB7NNF | 2026-09-01 06:36:20 | 48.06039 | -117.27905 | 324° | 33km/h | 22462m | 8.3m/s | -52.7°C | 0% | 0hPa | 0V | 00:00:00 | 00:00:00 | 00:00:00 | |
| WB7NNF | 2026-09-01 06:35:58 | 48.05940 | -117.27895 | 30° | 31km/h | 22346m | 6.6m/s | -52.6°C | 0% | 0hPa | 0V | 00:00:00 | 00:00:00 | 00:00:00 | |
| WB7NNF | 2026-09-01 06:35:37 | 48.05768 | -117.27836 | 312° | 42km/h | 22232m | 1.7m/s | -53.1°C | 0% | 0hPa | 0V | 00:00:00 | 00:00:00 | 00:00:00 | |
| WB7NNF | 2026-09-01 06:35:16 | 48.05637 | -117.27735 | 20° | 46km/h | 22116m | -0.4m/s | -52.9°C | 0% | 0hPa | 0V | 00:00:00 | 00:00:00 | 00:00:00 | |
| WB7NNF | 2026-09-01 06:34:56 | 48.05540 | -117.27586 | 259° | 40km/h | 22004m | 9.1m/s | -53.0°C | 0% | 0hPa | 0V | 00:00:00 | 00:00:00 | 00:00:00 | |
| WB7NNF | 2026-09-01 06:34:34 | 48.05488 | -117.27484 | 15° | 47km/h | 21882m | 5.5m/s | -52.8°C | 0% | 0hPa | 0V | 00:00:00 | 00:00:00 | 00:00:00 | |
| WB7NNF | 2026-09-01 06:34:13 | 48.05440 | -117.27401 | 302° | 33km/h | 21779m | 3.2m/s | -52.8°C | 0% | 0hPa | 0V | 00:00:00 | 00:00:00 | 00:00:00 | |
| WB7NNF | 2026-09-01 06:33:52 | 48.05419 | -117.27375 | 49° | 38km/h | 21660m | 4.2m/s | -52.7°C | 0% | 0hPa | 0V | 00:00:00 | 00:00:00 | 00:00:00 | |
| WB7NNF | 2026-09-01 06:33:32 | 48.05354 | -117.27419 | 105° | 20km/h | 21541m | 0.3m/s | -52.7°C | 0% | 0hPa | 0V | 00:00:00 | 00:00:00 | 00:00:00 | |
| WB7NNF | 2026-09-01 06:33:11 | 48.05280 | -117.27497 | 28° | 26km/h | 21437m | 8.6m/s | -52.8°C | 0% | 0hPa | 0V | 00:00:00 | 00:00:00 | 00:00:00 | |
| WB7NNF | 2026-09-01 06:32:51 | 48.05204 | -117.27442 | 343° | 33km/h | 21330m | 2.0m/s | -52.7°C | 0% | 0hPa | 0V | 00:00:00 | 00:00:00 | 00:00:00 | |
| WB7NNF | 2026-09-01 06:32:31 | 48.05180 | -117.27399 | 185° | 40km/h | 21211m | 4.0m/s | -52.4°C | 0% | 0hPa | 0V | 00:00:00 | 00:00:00 | 00:00:00 | |
| WB7NNF | 2026-09-01 06:32:10 | 48.05187 | -117.27416 | 9° | 16km/h | 21101m | 9.8m/s | -52.3°C | 0% | 0hPa | 0V | 00:00:00 | 00:00:00 | 00:00:00 | |
| WB7NNF | 2026-09-01 06:31:49 | 48.05165 | -117.27461 | 115° | 20km/h | 20989m | 9.1m/s | -53.5°C | 0% | 0hPa | 0V | 00:00:00 | 00:00:00 | 00:00:00 | |
| WB7NNF | 2026-09-01 06:31:27 | 48.05112 | -117.27534 | 215° | 27km/h | 20870m | 7.4m/s | -53.9°C | 0% | 0hPa | 0V | 00:00:00 | 00:00:00 | 00:00:00 | |
| WB7NNF | 2026-09-01 06:31:06 | 48.05141 | -117.27644 | 121° | 33km/h | 20774m | 3.3m/s | -53.7°C | 0% | 0hPa | 0V | 00:00:00 | 00:00:00 | 00:00:00 | |
| WB7NNF | 2026-09-01 06:30:46 | 48.05150 | -117.27788 | 150° | 9km/h | 20659m | 5.3m/s | -53.5°C | 0% | 0hPa | 0V | 00:00:00 | 00:00:00 | 00:00:00 | |
| WB7NNF | 2026-09-01 06:30:25 | 48.05172 | -117.27940 | 115° | 49km/h | 20561m | 1.6m/s | -53.0°C | 0% | 0hPa | 0V | 00:00:00 | 00:00:00 | 00:00:00 | |
| WB7NNF | 2026-09-01 06:30:05 | 48.05170 | -117.28100 | 318° | 24km/h | 20451m | 8.2m/s | -52.6°C | 0% | 0hPa | 0V | 00:00:00 | 00:00:00 | 00:00:00 | |
| WB7NNF | 2026-09-01 06:29:44 | 48.05162 | -117.28243 | 84° | 11km/h | 20343m | 5.5m/s | -53.2°C | 0% | 0hPa | 0V | 00:00:00 | 00:00:00 | 00:00:00 | |
| WB7NNF | 2026-09-01 06:29:24 | 48.05121 | -117.28481 | 135° | 26km/h | 20234m | 5.9m/s | -53.3°C | 0% | 0hPa | 0V | 00:00:00 | 00:00:00 | 00:00:00 | |
| WB7NNF | 2026-09-01 06:29:03 | 48.05070 | -117.28674 | 17° | 35km/h | 20129m | 0.5m/s | -53.1°C | 0% | 0hPa | 0V | 00:00:00 | 00:00:00 | 00:00:00 | |
| WB7NNF | 2026-09-01 06:28:43 | 48.05006 | -117.28932 | 90° | 33km/h | 20021m | 2.7m/s | -53.3°C | 0% | 0hPa | 0V | 00:00:00 | 00:00:00 | 00:00:00 | |
| WB7NNF | 2026-09-01 06:28:22 | 48.04912 | -117.29124 | 32° | 55km/h | 19913m | 5.7m/s | -53.2°C | 0% | 0hPa | 0V | 00:00:00 | 00:00:00 | 00:00:00 | |
| WB7NNF | 2026-09-01 06:27:41 | 48.04833 | -117.29456 | 79° | 27km/h | 19717m | 9.4m/s | -52.8°C | 0% | 0hPa | 0V | 00:00:00 | 00:00:00 | 00:00:00 | |
| WB7NNF | 2026-09-01 06:27:21 | 48.04832 | -117.29701 | 88° | 66km/h | 19621m | 1.4m/s | -53.3°C | 0% | 0hPa | 0V | 00:00:00 | 00:00:00 | 00:00:00 | |
| WB7NNF | 2026-09-01 06:26:38 | 48.04640 | -117.30219 | 13° | 46km/h | 19435m | 5.3m/s | -54.9°C | 0% | 0hPa | 0V | 00:00:00 | 00:00:00 | 00:00:00 | |
| WB7NNF | 2026-09-01 06:26:17 | 48.04395 | -117.30437 | 69° | 51km/h | 19325m | 5.5m/s | -55.2°C | 0% | 0hPa | 0V | 00:00:00 | 00:00:00 | 00:00:00 | |
| WB7NNF | 2026-09-01 06:25:55 | 48.04170 | -117.30585 | 19° | 69km/h | 19223m | 2.6m/s | -54.4°C | 0% | 0hPa | 0V | 00:00:00 | 00:00:00 | 00:00:00 | |
| WB7NNF | 2026-09-01 06:25:34 | 48.03980 | -117.30723 | 361° | 55km/h | 19117m | 10.7m/s | -53.5°C | 0% | 0hPa | 0V | 00:00:00 | 00:00:00 | 00:00:00 | |
| WB7NNF | 2026-09-01 06:25:14 | 48.03798 | -117.30823 | 24° | 13km/h | 19009m | 1.9m/s | -53.4°C | 0% | 0hPa | 0V | 00:00:00 | 00:00:00 | 00:00:00 | |
| WB7NNF | 2026-09-01 06:24:53 | 48.03673 | -117.30894 | 15° | 38km/h | 18903m | 6.5m/s | -53.9°C | 0% | 0hPa | 0V | 00:00:00 | 00:00:00 | 00:00:00 | |
| WB7NNF | 2026-09-01 06:24:33 | 48.03545 | -117.31072 | 62° | 22km/h | 18791m | 7.4m/s | -54.0°C | 0% | 0hPa | 0V | 00:00:00 | 00:00:00 | 00:00:00 | |
| WB7NNF | 2026-09-01 06:24:12 | 48.03387 | -117.31282 | 36° | 55km/h | 18673m | 7.1m/s | -54.7°C | 0% | 0hPa | 0V | 00:00:00 | 00:00:00 | 00:00:00 | |
| WB7NNF | 2026-09-01 06:23:51 | 48.03196 | -117.31509 | 58° | 27km/h | 18555m | 5.1m/s | -54.7°C | 0% | 0hPa | 0V | 00:00:00 | 00:00:00 | 00:00:00 | |
| WB7NNF | 2026-09-01 06:23:31 | 48.02993 | -117.31666 | 59° | 53km/h | 18435m | 5.7m/s | -54.1°C | 0% | 0hPa | 0V | 00:00:00 | 00:00:00 | 00:00:00 | |
| WB7NNF | 2026-09-01 06:23:10 | 48.02845 | -117.31773 | 9° | 27km/h | 18326m | 6.3m/s | -53.9°C | 0% | 0hPa | 0V | 00:00:00 | 00:00:00 | 00:00:00 | |
| WB7NNF | 2026-09-01 06:22:50 | 48.02710 | -117.31943 | 72° | 38km/h | 18221m | 6.0m/s | -54.2°C | 0% | 0hPa | 0V | 00:00:00 | 00:00:00 | 00:00:00 | |
| WB7NNF | 2026-09-01 06:22:29 | 48.02575 | -117.32123 | 56° | 42km/h | 18116m | 8.6m/s | -54.0°C | 0% | 0hPa | 0V | 00:00:00 | 00:00:00 | 00:00:00 | |
| WB7NNF | 2026-09-01 06:22:07 | 48.02428 | -117.32336 | 12° | 40km/h | 18014m | 4.3m/s | -53.7°C | 0% | 0hPa | 0V | 00:00:00 | 00:00:00 | 00:00:00 | |
| WB7NNF | 2026-09-01 06:21:45 | 48.02242 | -117.32551 | 30° | 46km/h | 17894m | 7.2m/s | -53.6°C | 0% | 0hPa | 0V | 00:00:00 | 00:00:00 | 00:00:00 | |
| WB7NNF | 2026-09-01 06:21:24 | 48.02065 | -117.32823 | 41° | 40km/h | 17781m | 6.0m/s | -53.8°C | 0% | 0hPa | 0V | 00:00:00 | 00:00:00 | 00:00:00 | |
| WB7NNF | 2026-09-01 06:21:03 | 48.01858 | -117.33056 | 31° | 53km/h | 17673m | 6.1m/s | -54.1°C | 0% | 0hPa | 0V | 00:00:00 | 00:00:00 | 00:00:00 | |
| WB7NNF | 2026-09-01 06:20:43 | 48.01663 | -117.33269 | 25° | 38km/h | 17571m | 5.9m/s | -54.7°C | 0% | 0hPa | 0V | 00:00:00 | 00:00:00 | 00:00:00 | |
| WB7NNF | 2026-09-01 06:20:21 | 48.01459 | -117.33530 | 14° | 42km/h | 17452m | 4.0m/s | -54.5°C | 0% | 0hPa | 0V | 00:00:00 | 00:00:00 | 00:00:00 | |
| WB7NNF | 2026-09-01 06:19:58 | 48.01311 | -117.33813 | 62° | 33km/h | 17336m | 3.8m/s | -54.6°C | 0% | 0hPa | 0V | 00:00:00 | 00:00:00 | 00:00:00 | |
| WB7NNF | 2026-09-01 06:19:38 | 48.01150 | -117.34100 | 70° | 35km/h | 17233m | 5.5m/s | -54.1°C | 0% | 0hPa | 0V | 00:00:00 | 00:00:00 | 00:00:00 | |
| WB7NNF | 2026-09-01 06:19:17 | 48.00988 | -117.34323 | 3° | 46km/h | 17135m | 3.3m/s | -54.1°C | 0% | 0hPa | 0V | 00:00:00 | 00:00:00 | 00:00:00 | |
| WB7NNF | 2026-09-01 06:18:57 | 48.00826 | -117.34555 | 50° | 16km/h | 17035m | 6.0m/s | -54.7°C | 0% | 0hPa | 0V | 00:00:00 | 00:00:00 | 00:00:00 | |
| WB7NNF | 2026-09-01 06:18:36 | 48.00650 | -117.34733 | 34° | 57km/h | 16937m | 6.1m/s | -55.0°C | 0% | 0hPa | 0V | 00:00:00 | 00:00:00 | 00:00:00 | |
| WB7NNF | 2026-09-01 06:18:15 | 48.00449 | -117.34885 | 27° | 38km/h | 16833m | 5.4m/s | -55.1°C | 0% | 0hPa | 0V | 00:00:00 | 00:00:00 | 00:00:00 | |
| WB7NNF | 2026-09-01 06:17:55 | 48.00275 | -117.35052 | 43° | 49km/h | 16729m | 6.4m/s | -54.4°C | 0% | 0hPa | 0V | 00:00:00 | 00:00:00 | 00:00:00 | |
| WB7NNF | 2026-09-01 06:17:34 | 48.00115 | -117.35233 | 72° | 33km/h | 16632m | 5.9m/s | -54.9°C | 0% | 0hPa | 0V | 00:00:00 | 00:00:00 | 00:00:00 | |
| WB7NNF | 2026-09-01 06:17:14 | 47.99940 | -117.35466 | 49° | 68km/h | 16530m | 7.2m/s | -55.4°C | 0% | 0hPa | 0V | 00:00:00 | 00:00:00 | 00:00:00 | |
| WB7NNF | 2026-09-01 06:16:53 | 47.99766 | -117.35747 | 66° | 49km/h | 16435m | 4.3m/s | -56.2°C | 0% | 0hPa | 0V | 00:00:00 | 00:00:00 | 00:00:00 | |
| WB7NNF | 2026-09-01 06:16:33 | 47.99566 | -117.36049 | 36° | 64km/h | 16339m | 4.8m/s | -56.1°C | 0% | 0hPa | 0V | 00:00:00 | 00:00:00 | 00:00:00 | |
| WB7NNF | 2026-09-01 06:16:12 | 47.99351 | -117.36349 | 60° | 68km/h | 16242m | 4.4m/s | -55.6°C | 0% | 0hPa | 0V | 00:00:00 | 00:00:00 | 00:00:00 | |
| WB7NNF | 2026-09-01 06:15:52 | 47.99141 | -117.36633 | 31° | 69km/h | 16141m | 5.2m/s | -55.4°C | 0% | 0hPa | 0V | 00:00:00 | 00:00:00 | 00:00:00 | |
| WB7NNF | 2026-09-01 06:15:31 | 47.98935 | -117.36910 | 39° | 35km/h | 16042m | 4.1m/s | -55.4°C | 0% | 0hPa | 0V | 00:00:00 | 00:00:00 | 00:00:00 | |
| WB7NNF | 2026-09-01 06:15:11 | 47.98682 | -117.37134 | 40° | 47km/h | 15935m | 6.7m/s | -55.8°C | 0% | 0hPa | 0V | 00:00:00 | 00:00:00 | 00:00:00 | |
| WB7NNF | 2026-09-01 06:14:49 | 47.98477 | -117.37314 | 25° | 58km/h | 15833m | 5.3m/s | -55.9°C | 0% | 0hPa | 0V | 00:00:00 | 00:00:00 | 00:00:00 | |
| WB7NNF | 2026-09-01 06:14:28 | 47.98281 | -117.37527 | 17° | 37km/h | 15732m | 4.8m/s | -56.1°C | 0% | 0hPa | 0V | 00:00:00 | 00:00:00 | 00:00:00 | |
| WB7NNF | 2026-09-01 06:14:08 | 47.98075 | -117.37745 | 31° | 33km/h | 15633m | 4.0m/s | -55.7°C | 0% | 0hPa | 0V | 00:00:00 | 00:00:00 | 00:00:00 | |
| WB7NNF | 2026-09-01 06:13:26 | 47.97639 | -117.38148 | 11° | 44km/h | 15440m | 6.5m/s | -55.1°C | 0% | 0hPa | 0V | 00:00:00 | 00:00:00 | 00:00:00 | |
| WB7NNF | 2026-09-01 06:13:06 | 47.97427 | -117.38357 | 55° | 42km/h | 15340m | 7.3m/s | -56.0°C | 0% | 0hPa | 0V | 00:00:00 | 00:00:00 | 00:00:00 | |
| WB7NNF | 2026-09-01 06:12:25 | 47.96962 | -117.38810 | 24° | 53km/h | 15146m | 5.1m/s | -55.5°C | 0% | 0hPa | 0V | 00:00:00 | 00:00:00 | 00:00:00 | |
| WB7NNF | 2026-09-01 06:12:04 | 47.96742 | -117.39077 | 51° | 27km/h | 15045m | 5.0m/s | -55.1°C | 0% | 0hPa | 0V | 00:00:00 | 00:00:00 | 00:00:00 | |
| WB7NNF | 2026-09-01 06:11:43 | 47.96549 | -117.39337 | 50° | 73km/h | 14949m | 5.9m/s | -55.3°C | 0% | 0hPa | 0V | 00:00:00 | 00:00:00 | 00:00:00 | |
| WB7NNF | 2026-09-01 06:11:23 | 47.96349 | -117.39649 | 52° | 57km/h | 14850m | 5.1m/s | -55.6°C | 0% | 0hPa | 0V | 00:00:00 | 00:00:00 | 00:00:00 | |
| WB7NNF | 2026-09-01 06:11:02 | 47.96171 | -117.39923 | 23° | 62km/h | 14758m | 4.7m/s | -55.7°C | 0% | 0hPa | 0V | 00:00:00 | 00:00:00 | 00:00:00 | |
| WB7NNF | 2026-09-01 06:10:42 | 47.95962 | -117.40267 | 59° | 42km/h | 14662m | 6.2m/s | -55.9°C | 0% | 0hPa | 0V | 00:00:00 | 00:00:00 | 00:00:00 | |
| WB7NNF | 2026-09-01 06:10:20 | 47.95741 | -117.40578 | 50° | 75km/h | 14572m | 6.2m/s | -55.8°C | 0% | 0hPa | 0V | 00:00:00 | 00:00:00 | 00:00:00 | |
| WB7NNF | 2026-09-01 06:09:57 | 47.95477 | -117.40931 | 37° | 78km/h | 14467m | 2.7m/s | -55.3°C | 0% | 0hPa | 0V | 00:00:00 | 00:00:00 | 00:00:00 | |
| WB7NNF | 2026-09-01 06:09:37 | 47.95234 | -117.41230 | 36° | 55km/h | 14378m | 5.8m/s | -55.5°C | 0% | 0hPa | 0V | 00:00:00 | 00:00:00 | 00:00:00 | |
| WB7NNF | 2026-09-01 06:09:16 | 47.94976 | -117.41455 | 33° | 62km/h | 14289m | 5.4m/s | -55.1°C | 0% | 0hPa | 0V | 00:00:00 | 00:00:00 | 00:00:00 | |
| WB7NNF | 2026-09-01 06:08:55 | 47.94736 | -117.41638 | 44° | 69km/h | 14204m | 4.6m/s | -55.3°C | 0% | 0hPa | 0V | 00:00:00 | 00:00:00 | 00:00:00 | |
| WB7NNF | 2026-09-01 06:08:35 | 47.94526 | -117.41884 | 33° | 58km/h | 14109m | 5.6m/s | -54.8°C | 0% | 0hPa | 0V | 00:00:00 | 00:00:00 | 00:00:00 | |
| WB7NNF | 2026-09-01 06:08:14 | 47.94342 | -117.42158 | 56° | 35km/h | 14014m | 5.0m/s | -55.1°C | 0% | 0hPa | 0V | 00:00:00 | 00:00:00 | 00:00:00 | |
| WB7NNF | 2026-09-01 06:07:54 | 47.94155 | -117.42433 | 53° | 60km/h | 13913m | 4.8m/s | -54.8°C | 0% | 0hPa | 0V | 00:00:00 | 00:00:00 | 00:00:00 | |
| WB7NNF | 2026-09-01 06:07:33 | 47.93989 | -117.42679 | 40° | 64km/h | 13814m | 5.3m/s | -55.0°C | 0% | 0hPa | 0V | 00:00:00 | 00:00:00 | 00:00:00 | |
| WB7NNF | 2026-09-01 06:07:13 | 47.93802 | -117.42936 | 31° | 44km/h | 13704m | 5.5m/s | -55.2°C | 0% | 0hPa | 0V | 00:00:00 | 00:00:00 | 00:00:00 | |
| WB7NNF | 2026-09-01 06:06:52 | 47.93635 | -117.43198 | 70° | 53km/h | 13600m | 3.3m/s | -55.4°C | 0% | 0hPa | 0V | 00:00:00 | 00:00:00 | 00:00:00 | |
| WB7NNF | 2026-09-01 06:06:32 | 47.93438 | -117.43517 | 49° | 64km/h | 13495m | 5.8m/s | -56.1°C | 0% | 0hPa | 0V | 00:00:00 | 00:00:00 | 00:00:00 | |
| WB7NNF | 2026-09-01 06:06:11 | 47.93219 | -117.43851 | 49° | 53km/h | 13395m | 6.1m/s | -57.0°C | 0% | 0hPa | 0V | 00:00:00 | 00:00:00 | 00:00:00 | |
| WB7NNF | 2026-09-01 06:05:30 | 47.92703 | -117.44489 | 36° | 64km/h | 13212m | 4.9m/s | -58.4°C | 0% | 0hPa | 0V | 00:00:00 | 00:00:00 | 00:00:00 | |
| WB7NNF | 2026-09-01 06:05:10 | 47.92395 | -117.44788 | 39° | 71km/h | 13131m | 5.1m/s | -60.1°C | 0% | 0hPa | 0V | 00:00:00 | 00:00:00 | 00:00:00 | |
| WB7NNF | 2026-09-01 06:04:49 | 47.92051 | -117.45032 | 22° | 82km/h | 13052m | 5.1m/s | -60.6°C | 0% | 0hPa | 0V | 00:00:00 | 00:00:00 | 00:00:00 | |
| WB7NNF | 2026-09-01 06:04:29 | 47.91704 | -117.45224 | 36° | 73km/h | 12968m | 6.7m/s | -60.7°C | 0% | 0hPa | 0V | 00:00:00 | 00:00:00 | 00:00:00 | |
| WB7NNF | 2026-09-01 06:04:08 | 47.91330 | -117.45447 | 23° | 62km/h | 12866m | 4.7m/s | -61.1°C | 0% | 0hPa | 0V | 00:00:00 | 00:00:00 | 00:00:00 | |
| WB7NNF | 2026-09-01 06:03:48 | 47.90948 | -117.45591 | 15° | 84km/h | 12781m | 6.1m/s | -60.7°C | 0% | 0hPa | 0V | 00:00:00 | 00:00:00 | 00:00:00 | |
| WB7NNF | 2026-09-01 06:03:27 | 47.90530 | -117.45719 | 7° | 73km/h | 12685m | 6.1m/s | -60.6°C | 0% | 0hPa | 0V | 00:00:00 | 00:00:00 | 00:00:00 | |
| WB7NNF | 2026-09-01 06:03:06 | 47.90166 | -117.45779 | 12° | 66km/h | 12594m | 3.9m/s | -60.5°C | 0% | 0hPa | 0V | 00:00:00 | 00:00:00 | 00:00:00 | |
| WB7NNF | 2026-09-01 06:02:46 | 47.89768 | -117.45834 | 12° | 68km/h | 12507m | 6.6m/s | -60.1°C | 0% | 0hPa | 0V | 00:00:00 | 00:00:00 | 00:00:00 | |
| WB7NNF | 2026-09-01 06:02:25 | 47.89404 | -117.45846 | 359° | 82km/h | 12413m | 4.7m/s | -59.7°C | 0% | 0hPa | 0V | 00:00:00 | 00:00:00 | 00:00:00 | |
| WB7NNF | 2026-09-01 06:02:05 | 47.89003 | -117.45851 | 350° | 89km/h | 12319m | 4.3m/s | -58.9°C | 0% | 0hPa | 0V | 00:00:00 | 00:00:00 | 00:00:00 | |
| WB7NNF | 2026-09-01 06:01:44 | 47.88646 | -117.45866 | 9° | 78km/h | 12223m | 5.5m/s | -58.5°C | 0% | 0hPa | 0V | 00:00:00 | 00:00:00 | 00:00:00 | |
| WB7NNF | 2026-09-01 06:01:24 | 47.88265 | -117.45931 | 14° | 88km/h | 12134m | 5.7m/s | -58.0°C | 0% | 0hPa | 0V | 00:00:00 | 00:00:00 | 00:00:00 | |
| WB7NNF | 2026-09-01 06:00:43 | 47.87560 | -117.46156 | 14° | 55km/h | 11957m | 2.7m/s | -57.3°C | 0% | 0hPa | 0V | 00:00:00 | 00:00:00 | 00:00:00 | |
| WB7NNF | 2026-09-01 06:00:22 | 47.87223 | -117.46304 | 23° | 68km/h | 11877m | 4.7m/s | -56.8°C | 0% | 0hPa | 0V | 00:00:00 | 00:00:00 | 00:00:00 | |
| WB7NNF | 2026-09-01 05:59:41 | 47.86567 | -117.46548 | 19° | 53km/h | 11704m | 4.0m/s | -55.7°C | 0% | 0hPa | 0V | 00:00:00 | 00:00:00 | 00:00:00 | |
| WB7NNF | 2026-09-01 05:59:21 | 47.86217 | -117.46645 | 10° | 62km/h | 11617m | 5.0m/s | -55.4°C | 0% | 0hPa | 0V | 00:00:00 | 00:00:00 | 00:00:00 | |
| WB7NNF | 2026-09-01 05:59:00 | 47.85849 | -117.46735 | 4° | 49km/h | 11526m | 4.8m/s | -54.9°C | 0% | 0hPa | 0V | 00:00:00 | 00:00:00 | 00:00:00 | |
| WB7NNF | 2026-09-01 05:58:39 | 47.85480 | -117.46835 | 11° | 73km/h | 11435m | 4.5m/s | -54.4°C | 0% | 0hPa | 0V | 00:00:00 | 00:00:00 | 00:00:00 | |
| WB7NNF | 2026-09-01 05:58:12 | 47.85001 | -117.46931 | 15° | 60km/h | 11303m | 2.7m/s | -53.4°C | 0% | 0hPa | 0V | 00:00:00 | 00:00:00 | 00:00:00 | |
| WB7NNF | 2026-09-01 05:57:51 | 47.84634 | -117.47015 | 12° | 75km/h | 11209m | 5.9m/s | -52.8°C | 0% | 0hPa | 0V | 00:00:00 | 00:00:00 | 00:00:00 | |
| WB7NNF | 2026-09-01 05:57:30 | 47.84289 | -117.47113 | 14° | 64km/h | 11117m | 4.8m/s | -52.1°C | 0% | 0hPa | 0V | 00:00:00 | 00:00:00 | 00:00:00 | |
| WB7NNF | 2026-09-01 05:57:10 | 47.83911 | -117.47253 | 18° | 86km/h | 11023m | 5.8m/s | -51.4°C | 0% | 0hPa | 0V | 00:00:00 | 00:00:00 | 00:00:00 | |
| WB7NNF | 2026-09-01 05:56:49 | 47.83547 | -117.47362 | 7° | 68km/h | 10934m | 3.5m/s | -50.7°C | 0% | 0hPa | 0V | 00:00:00 | 00:00:00 | 00:00:00 | |
| WB7NNF | 2026-09-01 05:56:29 | 47.83155 | -117.47495 | 14° | 82km/h | 10841m | 7.0m/s | -49.9°C | 0% | 0hPa | 0V | 00:00:00 | 00:00:00 | 00:00:00 | |
| WB7NNF | 2026-09-01 05:56:08 | 47.82779 | -117.47611 | 12° | 73km/h | 10752m | 4.5m/s | -49.1°C | 0% | 0hPa | 0V | 00:00:00 | 00:00:00 | 00:00:00 | |
| WB7NNF | 2026-09-01 05:55:48 | 47.82398 | -117.47721 | 6° | 82km/h | 10652m | 5.8m/s | -48.3°C | 0% | 0hPa | 0V | 00:00:00 | 00:00:00 | 00:00:00 | |
| WB7NNF | 2026-09-01 05:55:27 | 47.82005 | -117.47827 | 361° | 80km/h | 10554m | 3.6m/s | -47.5°C | 0% | 0hPa | 0V | 00:00:00 | 00:00:00 | 00:00:00 | |
| WB7NNF | 2026-09-01 05:55:07 | 47.81651 | -117.47917 | 2° | 80km/h | 10442m | 7.1m/s | -46.5°C | 0% | 0hPa | 0V | 00:00:00 | 00:00:00 | 00:00:00 | |
| WB7NNF | 2026-09-01 05:54:46 | 47.81282 | -117.48020 | 21° | 71km/h | 10328m | 5.2m/s | -45.6°C | 0% | 0hPa | 0V | 00:00:00 | 00:00:00 | 00:00:00 | |
| WB7NNF | 2026-09-01 05:54:26 | 47.80902 | -117.48173 | 359° | 62km/h | 10244m | 5.8m/s | -44.8°C | 0% | 0hPa | 0V | 00:00:00 | 00:00:00 | 00:00:00 | |
| WB7NNF | 2026-09-01 05:54:05 | 47.80534 | -117.48325 | 13° | 82km/h | 10118m | 8.2m/s | -43.8°C | 0% | 0hPa | 0V | 00:00:00 | 00:00:00 | 00:00:00 | |
| WB7NNF | 2026-09-01 05:53:45 | 47.80166 | -117.48541 | 15° | 84km/h | 10007m | 4.3m/s | -43.0°C | 0% | 0hPa | 0V | 00:00:00 | 00:00:00 | 00:00:00 | |
| WB7NNF | 2026-09-01 05:53:24 | 47.79809 | -117.48747 | 13° | 66km/h | 9910m | 5.1m/s | -42.2°C | 0% | 0hPa | 0V | 00:00:00 | 00:00:00 | 00:00:00 | |
| WB7NNF | 2026-09-01 05:53:03 | 47.79477 | -117.48922 | 23° | 58km/h | 9807m | 5.9m/s | -41.7°C | 0% | 0hPa | 0V | 00:00:00 | 00:00:00 | 00:00:00 | |
| WB7NNF | 2026-09-01 05:52:43 | 47.79209 | -117.49142 | 35° | 64km/h | 9711m | 4.7m/s | -40.9°C | 0% | 0hPa | 0V | 00:00:00 | 00:00:00 | 00:00:00 | |
| WB7NNF | 2026-09-01 05:52:22 | 47.78953 | -117.49342 | 40° | 53km/h | 9628m | 5.0m/s | -40.2°C | 0% | 0hPa | 0V | 00:00:00 | 00:00:00 | 00:00:00 | |
| WB7NNF | 2026-09-01 05:52:02 | 47.78688 | -117.49555 | 26° | 51km/h | 9539m | 4.0m/s | -39.4°C | 0% | 0hPa | 0V | 00:00:00 | 00:00:00 | 00:00:00 | |
| WB7NNF | 2026-09-01 05:51:41 | 47.78436 | -117.49776 | 28° | 64km/h | 9453m | 4.8m/s | -38.6°C | 0% | 0hPa | 0V | 00:00:00 | 00:00:00 | 00:00:00 | |
| WB7NNF | 2026-09-01 05:51:21 | 47.78186 | -117.50008 | 21° | 64km/h | 9366m | 2.7m/s | -37.9°C | 0% | 0hPa | 0V | 00:00:00 | 00:00:00 | 00:00:00 | |
| WB7NNF | 2026-09-01 05:51:00 | 47.77952 | -117.50220 | 32° | 69km/h | 9282m | 4.9m/s | -37.2°C | 0% | 0hPa | 0V | 00:00:00 | 00:00:00 | 00:00:00 | |
| WB7NNF | 2026-09-01 05:50:40 | 47.77704 | -117.50435 | 34° | 68km/h | 9194m | 3.6m/s | -36.5°C | 0% | 0hPa | 0V | 00:00:00 | 00:00:00 | 00:00:00 | |
| WB7NNF | 2026-09-01 05:50:19 | 47.77453 | -117.50645 | 32° | 40km/h | 9114m | 3.9m/s | -36.2°C | 0% | 0hPa | 0V | 00:00:00 | 00:00:00 | 00:00:00 | |
| WB7NNF | 2026-09-01 05:49:59 | 47.77226 | -117.50899 | 16° | 47km/h | 9029m | 5.4m/s | -35.6°C | 0% | 0hPa | 0V | 00:00:00 | 00:00:00 | 00:00:00 | |
| WB7NNF | 2026-09-01 05:49:34 | 47.76997 | -117.51186 | 49° | 38km/h | 8928m | 2.3m/s | -35.2°C | 0% | 0hPa | 0V | 00:00:00 | 00:00:00 | 00:00:00 | |
| WB7NNF | 2026-09-01 05:49:14 | 47.76781 | -117.51429 | 28° | 46km/h | 8843m | 2.9m/s | -34.9°C | 0% | 0hPa | 0V | 00:00:00 | 00:00:00 | 00:00:00 | |
| WB7NNF | 2026-09-01 05:48:53 | 47.76577 | -117.51665 | 48° | 53km/h | 8755m | 4.8m/s | -34.4°C | 0% | 0hPa | 0V | 00:00:00 | 00:00:00 | 00:00:00 | |
| WB7NNF | 2026-09-01 05:48:33 | 47.76371 | -117.51884 | 19° | 42km/h | 8661m | 4.5m/s | -33.8°C | 0% | 0hPa | 0V | 00:00:00 | 00:00:00 | 00:00:00 | |
| WB7NNF | 2026-09-01 05:48:12 | 47.76186 | -117.52078 | 38° | 49km/h | 8576m | 4.2m/s | -33.1°C | 0% | 0hPa | 0V | 00:00:00 | 00:00:00 | 00:00:00 | |
| WB7NNF | 2026-09-01 05:47:52 | 47.75997 | -117.52293 | 28° | 64km/h | 8486m | 3.7m/s | -32.4°C | 0% | 0hPa | 0V | 00:00:00 | 00:00:00 | 00:00:00 | |
| WB7NNF | 2026-09-01 05:47:31 | 47.75808 | -117.52485 | 40° | 35km/h | 8391m | 4.0m/s | -31.7°C | 0% | 0hPa | 0V | 00:00:00 | 00:00:00 | 00:00:00 | |
| WB7NNF | 2026-09-01 05:47:11 | 47.75638 | -117.52658 | 39° | 53km/h | 8283m | 5.2m/s | -30.9°C | 0% | 0hPa | 0V | 00:00:00 | 00:00:00 | 00:00:00 | |
| WB7NNF | 2026-09-01 05:46:50 | 47.75455 | -117.52851 | 29° | 58km/h | 8192m | 6.7m/s | -30.2°C | 0% | 0hPa | 0V | 00:00:00 | 00:00:00 | 00:00:00 | |
| WB7NNF | 2026-09-01 05:46:30 | 47.75267 | -117.53051 | 29° | 51km/h | 8092m | 4.5m/s | -29.4°C | 0% | 0hPa | 0V | 00:00:00 | 00:00:00 | 00:00:00 | |
| WB7NNF | 2026-09-01 05:46:10 | 47.75075 | -117.53247 | 53° | 55km/h | 8003m | 5.0m/s | -28.7°C | 0% | 0hPa | 0V | 00:00:00 | 00:00:00 | 00:00:00 | |
| WB7NNF | 2026-09-01 05:45:49 | 47.74901 | -117.53431 | 32° | 55km/h | 7898m | 4.5m/s | -27.8°C | 0% | 0hPa | 0V | 00:00:00 | 00:00:00 | 00:00:00 | |
| WB7NNF | 2026-09-01 05:45:28 | 47.74744 | -117.53618 | 25° | 51km/h | 7809m | 4.4m/s | -27.1°C | 0% | 0hPa | 0V | 00:00:00 | 00:00:00 | 00:00:00 | |
| WB7NNF | 2026-09-01 05:45:08 | 47.74575 | -117.53816 | 81° | 26km/h | 7712m | 4.4m/s | -26.4°C | 0% | 0hPa | 0V | 00:00:00 | 00:00:00 | 00:00:00 | |
| WB7NNF | 2026-09-01 05:44:47 | 47.74422 | -117.54024 | 35° | 57km/h | 7588m | 4.3m/s | -25.4°C | 0% | 0hPa | 0V | 00:00:00 | 00:00:00 | 00:00:00 | |
| WB7NNF | 2026-09-01 05:44:26 | 47.74280 | -117.54212 | 36° | 44km/h | 7496m | 5.7m/s | -24.6°C | 0% | 0hPa | 0V | 00:00:00 | 00:00:00 | 00:00:00 | |
| WB7NNF | 2026-09-01 05:44:06 | 47.74108 | -117.54408 | 37° | 64km/h | 7398m | 3.2m/s | -23.8°C | 0% | 0hPa | 0V | 00:00:00 | 00:00:00 | 00:00:00 | |
| WB7NNF | 2026-09-01 05:43:38 | 47.73880 | -117.54653 | 29° | 46km/h | 7259m | 3.4m/s | -22.8°C | 0% | 0hPa | 0V | 00:00:00 | 00:00:00 | 00:00:00 | |
| WB7NNF | 2026-09-01 05:43:17 | 47.73728 | -117.54836 | 5° | 33km/h | 7162m | 4.1m/s | -22.0°C | 0% | 0hPa | 0V | 00:00:00 | 00:00:00 | 00:00:00 | |
| WB7NNF | 2026-09-01 05:42:57 | 47.73579 | -117.55032 | 61° | 49km/h | 7057m | 4.8m/s | -21.1°C | 0% | 0hPa | 0V | 00:00:00 | 00:00:00 | 00:00:00 | |
| WB7NNF | 2026-09-01 05:42:36 | 47.73432 | -117.55236 | 48° | 51km/h | 6972m | 5.8m/s | -20.5°C | 0% | 0hPa | 0V | 00:00:00 | 00:00:00 | 00:00:00 | |
| WB7NNF | 2026-09-01 05:42:16 | 47.73286 | -117.55466 | 52° | 60km/h | 6874m | 5.1m/s | -19.6°C | 0% | 0hPa | 0V | 00:00:00 | 00:00:00 | 00:00:00 | |
| WB7NNF | 2026-09-01 05:41:55 | 47.73158 | -117.55649 | 71° | 40km/h | 6767m | 4.7m/s | -18.7°C | 0% | 0hPa | 0V | 00:00:00 | 00:00:00 | 00:00:00 | |
| WB7NNF | 2026-09-01 05:41:35 | 47.73015 | -117.55799 | 62° | 55km/h | 6657m | 7.7m/s | -17.7°C | 0% | 0hPa | 0V | 00:00:00 | 00:00:00 | 00:00:00 | |
| WB7NNF | 2026-09-01 05:41:14 | 47.72854 | -117.55971 | 353° | 35km/h | 6538m | 2.7m/s | -16.8°C | 0% | 0hPa | 0V | 00:00:00 | 00:00:00 | 00:00:00 | |
| WB7NNF | 2026-09-01 05:40:52 | 47.72689 | -117.56107 | 56° | 44km/h | 6422m | 6.3m/s | -15.9°C | 0% | 0hPa | 0V | 00:00:00 | 00:00:00 | 00:00:00 | |
| WB7NNF | 2026-09-01 05:39:49 | 47.72100 | -117.56512 | 6° | 40km/h | 6060m | 5.0m/s | -13.4°C | 0% | 0hPa | 0V | 00:00:00 | 00:00:00 | 00:00:00 | |
| WB7NNF | 2026-09-01 05:39:28 | 47.71893 | -117.56659 | 18° | 51km/h | 5952m | 4.2m/s | -12.7°C | 0% | 0hPa | 0V | 00:00:00 | 00:00:00 | 00:00:00 | |
| WB7NNF | 2026-09-01 05:39:06 | 47.71704 | -117.56773 | 54° | 38km/h | 5827m | 7.7m/s | -12.4°C | 0% | 0hPa | 0V | 00:00:00 | 00:00:00 | 00:00:00 | |
| WB7NNF | 2026-09-01 05:38:45 | 47.71528 | -117.56893 | 59° | 33km/h | 5716m | 4.0m/s | -11.8°C | 0% | 0hPa | 0V | 00:00:00 | 00:00:00 | 00:00:00 | |
| WB7NNF | 2026-09-01 05:38:25 | 47.71338 | -117.57040 | 13° | 42km/h | 5611m | 7.0m/s | -11.5°C | 0% | 0hPa | 0V | 00:00:00 | 00:00:00 | 00:00:00 | |
| WB7NNF | 2026-09-01 05:38:00 | 47.71127 | -117.57174 | 40° | 55km/h | 5467m | 5.6m/s | -10.4°C | 0% | 0hPa | 0V | 00:00:00 | 00:00:00 | 00:00:00 | |
| WB7NNF | 2026-09-01 05:37:36 | 47.70893 | -117.57362 | 22° | 57km/h | 5339m | 4.7m/s | -9.3°C | 0% | 0hPa | 0V | 00:00:00 | 00:00:00 | 00:00:00 | |
| WB7NNF | 2026-09-01 05:37:12 | 47.70695 | -117.57514 | 52° | 24km/h | 5210m | 4.6m/s | -8.3°C | 0% | 0hPa | 0V | 00:00:00 | 00:00:00 | 00:00:00 | |
| WB7NNF | 2026-09-01 05:36:52 | 47.70511 | -117.57684 | 21° | 55km/h | 5108m | 5.0m/s | -7.6°C | 0% | 0hPa | 0V | 00:00:00 | 00:00:00 | 00:00:00 |